Location: São Paulo
(23.5507°S, 46.6334°W)
Time: 13:34:16
(UTC-03:00)

Tiros 1 - Pass Details

Date: 16 February 2026
Orbit: 618 x 649 km, 48.4° (Epoch: 11 March)

Event Time Altitude Azimuth Distance (km) Brightness Sun altitude
Rises 04:14:00 0° 219° (SW) 2,980 - -22.6°
Exits shadow 04:15:16 - 217° (SW) 2,499 10.1 -22.4°
Reaches altitude 10° 04:16:25 10° 214° (SW) 2,063 9.6 -22.1°
Maximum altitude 04:21:04 52° 137° (SE) 805 7.9 -21.2°
Drops below altitude 10° 04:25:39 10° 60° (ENE) 2,035 10.2 -20.2°
Sets 04:28:01 0° 55° (NE) 2,934 11.0 -19.7°
